Time,TemperatureF,DewpointF,PressureIn,WindDirection,WindDirectionDegrees,WindSpeedMPH,WindSpeedGustMPH,Humidity,HourlyPrecipIn,Conditions,Clouds,dailyrainin,SolarRadiationWatts/m^2,SoftwareType,DateUTC
2013-08-28 00:01:00,69.0,67.0,29.91,WNW,284,0.0,0.0,94,0.00,,,0.00,0,weatherlink.com 1.10,2013-08-28 04:01:00,
2013-08-28 00:16:00,68.8,67.0,29.91,WNW,284,0.0,0.0,94,0.00,,,0.00,0,weatherlink.com 1.10,2013-08-28 04:16:00,
2013-08-28 00:31:00,68.5,67.0,29.91,WNW,284,0.0,0.0,94,0.00,,,0.00,0,weatherlink.com 1.10,2013-08-28 04:31:00,
2013-08-28 00:46:00,68.3,67.0,29.91,WNW,284,0.0,0.0,94,0.00,,,0.00,0,weatherlink.com 1.10,2013-08-28 04:46:00,
2013-08-28 01:01:00,67.9,66.0,29.90,WNW,284,0.0,0.0,94,0.00,,,0.00,0,weatherlink.com 1.10,2013-08-28 05:01:00,
2013-08-28 01:16:00,67.7,66.0,29.90,WNW,284,0.0,0.0,94,0.00,,,0.00,0,weatherlink.com 1.10,2013-08-28 05:16:00,
2013-08-28 01:31:00,67.5,66.0,29.90,WNW,284,0.0,0.0,94,0.00,,,0.00,0,weatherlink.com 1.10,2013-08-28 05:31:00,
2013-08-28 01:46:00,67.3,66.0,29.90,WNW,284,0.0,0.0,94,0.00,,,0.00,0,weatherlink.com 1.10,2013-08-28 05:46:00,
2013-08-28 02:02:00,67.2,66.0,29.89,WNW,284,0.0,0.0,94,0.00,,,0.00,0,weatherlink.com 1.10,2013-08-28 06:02:00,
2013-08-28 02:17:00,67.0,65.0,29.90,WNW,284,0.0,0.0,94,0.00,,,0.00,0,weatherlink.com 1.10,2013-08-28 06:17:00,
2013-08-28 02:32:00,66.8,65.0,29.89,WNW,284,0.0,0.0,94,0.00,,,0.00,0,weatherlink.com 1.10,2013-08-28 06:32:00,
2013-08-28 02:47:00,66.6,65.0,29.89,WNW,284,0.0,0.0,94,0.00,,,0.00,0,weatherlink.com 1.10,2013-08-28 06:47:00,
2013-08-28 03:02:00,66.3,65.0,29.89,WNW,284,0.0,0.0,94,0.00,,,0.00,0,weatherlink.com 1.10,2013-08-28 07:02:00,
2013-08-28 03:17:00,66.0,64.0,29.89,WNW,284,0.0,0.0,94,0.00,,,0.00,0,weatherlink.com 1.10,2013-08-28 07:17:00,
2013-08-28 03:32:00,65.7,64.0,29.88,WNW,284,0.0,0.0,94,0.00,,,0.00,0,weatherlink.com 1.10,2013-08-28 07:32:00,
2013-08-28 03:47:00,65.5,64.0,29.89,WNW,284,0.0,0.0,94,0.00,,,0.00,0,weatherlink.com 1.10,2013-08-28 07:47:00,
2013-08-28 04:02:00,65.3,64.0,29.89,WNW,284,0.0,0.0,94,0.00,,,0.00,0,weatherlink.com 1.10,2013-08-28 08:02:00,
2013-08-28 04:17:00,65.4,64.0,29.89,WNW,284,0.0,0.0,95,0.00,,,0.00,0,weatherlink.com 1.10,2013-08-28 08:17:00,
2013-08-28 04:32:00,65.5,64.0,29.88,WNW,284,0.0,0.0,95,0.00,,,0.00,0,weatherlink.com 1.10,2013-08-28 08:32:00,
2013-08-28 04:47:00,65.4,64.0,29.89,WNW,284,0.0,0.0,95,0.00,,,0.00,0,weatherlink.com 1.10,2013-08-28 08:47:00,
2013-08-28 05:02:00,65.2,64.0,29.89,WNW,284,0.0,0.0,95,0.00,,,0.00,0,weatherlink.com 1.10,2013-08-28 09:02:00,
2013-08-28 05:17:00,65.0,64.0,29.89,WNW,284,0.0,0.0,95,0.00,,,0.00,0,weatherlink.com 1.10,2013-08-28 09:17:00,
2013-08-28 05:32:00,64.6,63.0,29.89,WNW,284,0.0,0.0,94,0.00,,,0.00,0,weatherlink.com 1.10,2013-08-28 09:32:00,
2013-08-28 05:47:00,64.3,63.0,29.89,WNW,284,0.0,0.0,95,0.00,,,0.00,0,weatherlink.com 1.10,2013-08-28 09:47:00,
2013-08-28 06:02:00,64.1,63.0,29.89,WNW,284,0.0,0.0,95,0.00,,,0.00,0,weatherlink.com 1.10,2013-08-28 10:02:00,
2013-08-28 06:17:00,63.9,62.0,29.90,WNW,284,0.0,0.0,94,0.00,,,0.00,0,weatherlink.com 1.10,2013-08-28 10:17:00,
2013-08-28 06:32:00,63.6,62.0,29.91,WNW,284,0.0,1.0,94,0.00,,,0.00,5,weatherlink.com 1.10,2013-08-28 10:32:00,
2013-08-28 06:47:00,63.5,62.0,29.91,WNW,284,0.0,0.0,95,0.00,,,0.00,9,weatherlink.com 1.10,2013-08-28 10:47:00,
2013-08-28 07:02:00,63.4,62.0,29.91,WNW,284,0.0,0.0,95,0.00,,,0.00,14,weatherlink.com 1.10,2013-08-28 11:02:00,
2013-08-28 07:17:00,63.4,62.0,29.91,WNW,284,0.0,0.0,95,0.00,,,0.00,18,weatherlink.com 1.10,2013-08-28 11:17:00,
2013-08-28 07:32:00,63.4,62.0,29.92,WNW,284,0.0,0.0,95,0.00,,,0.00,21,weatherlink.com 1.10,2013-08-28 11:32:00,
2013-08-28 07:47:00,63.5,62.0,29.92,WNW,284,0.0,0.0,95,0.00,,,0.00,23,weatherlink.com 1.10,2013-08-28 11:47:00,
2013-08-28 08:02:00,63.8,62.0,29.91,WNW,284,0.0,1.0,95,0.00,,,0.00,28,weatherlink.com 1.10,2013-08-28 12:02:00,
2013-08-28 08:17:00,64.1,63.0,29.91,WNW,284,0.0,0.0,96,0.00,,,0.00,33,weatherlink.com 1.10,2013-08-28 12:17:00,
2013-08-28 08:32:00,64.5,63.0,29.91,WNW,284,0.0,0.0,96,0.00,,,0.00,35,weatherlink.com 1.10,2013-08-28 12:32:00,
2013-08-28 08:47:00,65.1,64.0,29.91,WNW,284,0.0,0.0,96,0.00,,,0.00,40,weatherlink.com 1.10,2013-08-28 12:47:00,
2013-08-28 09:02:00,65.7,65.0,29.91,WNW,284,0.0,1.0,96,0.00,,,0.00,44,weatherlink.com 1.10,2013-08-28 13:02:00,
2013-08-28 09:17:00,66.5,65.0,29.91,WNW,284,0.0,1.0,96,0.00,,,0.00,49,weatherlink.com 1.10,2013-08-28 13:17:00,
2013-08-28 09:32:00,67.4,66.0,29.91,WNW,284,0.0,1.0,96,0.00,,,0.00,53,weatherlink.com 1.10,2013-08-28 13:32:00,
2013-08-28 09:47:00,68.3,67.0,29.91,WNW,284,0.0,1.0,96,0.00,,,0.00,58,weatherlink.com 1.10,2013-08-28 13:47:00,
2013-08-28 10:02:00,69.3,68.0,29.91,WNW,284,0.0,1.0,95,0.00,,,0.00,62,weatherlink.com 1.10,2013-08-28 14:02:00,
2013-08-28 10:17:00,70.3,69.0,29.90,WNW,284,0.0,1.0,95,0.00,,,0.00,67,weatherlink.com 1.10,2013-08-28 14:17:00,
2013-08-28 10:32:00,72.4,70.0,29.90,WNW,284,0.0,1.0,91,0.00,,,0.00,72,weatherlink.com 1.10,2013-08-28 14:32:00,
2013-08-28 10:47:00,74.7,69.0,29.90,WNW,284,0.0,1.0,83,0.00,,,0.00,638,weatherlink.com 1.10,2013-08-28 14:47:00,
2013-08-28 11:02:00,75.9,70.0,29.90,WNW,284,0.0,0.0,82,0.00,,,0.00,668,weatherlink.com 1.10,2013-08-28 15:02:00,
2013-08-28 11:17:00,76.7,71.0,29.89,WNW,284,0.0,1.0,81,0.00,,,0.00,700,weatherlink.com 1.10,2013-08-28 15:17:00,
2013-08-28 11:33:00,77.2,71.0,29.89,WNW,284,0.0,1.0,81,0.00,,,0.00,722,weatherlink.com 1.10,2013-08-28 15:33:00,
2013-08-28 11:48:00,78.7,72.0,29.89,WNW,284,0.0,1.0,79,0.00,,,0.00,744,weatherlink.com 1.10,2013-08-28 15:48:00,
2013-08-28 12:03:00,79.7,72.0,29.89,WNW,284,0.0,1.0,78,0.00,,,0.00,765,weatherlink.com 1.10,2013-08-28 16:03:00,
2013-08-28 12:18:00,80.3,72.0,29.88,WNW,284,0.0,1.0,75,0.00,,,0.00,782,weatherlink.com 1.10,2013-08-28 16:18:00,
2013-08-28 13:03:00,82.0,72.0,29.86,WSW,245,0.0,1.0,71,0.00,,,0.00,831,weatherlink.com 1.10,2013-08-28 17:03:00,
2013-08-28 13:18:00,82.8,72.0,29.86,WSW,245,0.0,1.0,69,0.00,,,0.00,833,weatherlink.com 1.10,2013-08-28 17:18:00,
2013-08-28 13:33:00,83.5,74.0,29.86,WSW,244,0.0,1.0,72,0.00,,,0.00,844,weatherlink.com 1.10,2013-08-28 17:33:00,
2013-08-28 13:48:00,83.5,73.0,29.86,WNW,289,0.0,1.0,70,0.00,,,0.00,844,weatherlink.com 1.10,2013-08-28 17:48:00,
2013-08-28 14:33:00,84.5,71.0,29.84,West,279,0.0,1.0,65,0.00,,,0.00,807,weatherlink.com 1.10,2013-08-28 18:33:00,
2013-08-28 14:48:00,85.0,70.0,29.84,West,280,0.0,2.0,61,0.00,,,0.00,803,weatherlink.com 1.10,2013-08-28 18:48:00,
2013-08-28 15:03:00,85.0,71.0,29.84,West,280,0.0,2.0,63,0.00,,,0.00,802,weatherlink.com 1.10,2013-08-28 19:03:00,
2013-08-28 15:18:00,83.3,71.0,29.84,West,280,0.0,1.0,67,0.00,,,0.00,232,weatherlink.com 1.10,2013-08-28 19:18:00,
2013-08-28 15:33:00,85.8,71.0,29.83,North,350,1.0,2.0,62,0.00,,,0.00,696,weatherlink.com 1.10,2013-08-28 19:33:00,
2013-08-28 15:48:00,86.1,72.0,29.83,ENE,61,0.0,2.0,63,0.00,,,0.00,714,weatherlink.com 1.10,2013-08-28 19:48:00,
2013-08-28 16:03:00,86.4,70.0,29.83,NE,51,0.0,2.0,59,0.00,,,0.00,613,weatherlink.com 1.10,2013-08-28 20:03:00,
2013-08-28 16:18:00,84.1,71.0,29.82,North,350,0.0,1.0,64,0.00,,,0.00,237,weatherlink.com 1.10,2013-08-28 20:18:00,
2013-08-28 16:33:00,81.8,72.0,29.83,North,350,0.0,1.0,72,0.00,,,0.00,84,weatherlink.com 1.10,2013-08-28 20:33:00,
2013-08-28 16:48:00,80.3,71.0,29.84,WNW,283,0.0,2.0,74,0.00,,,0.00,102,weatherlink.com 1.10,2013-08-28 20:48:00,
2013-08-28 17:03:00,78.5,70.0,29.84,NNW,342,2.0,5.0,74,0.00,,,0.00,107,weatherlink.com 1.10,2013-08-28 21:03:00,
2013-08-28 17:18:00,77.0,69.0,29.84,NW,309,0.0,5.0,76,0.00,,,0.00,104,weatherlink.com 1.10,2013-08-28 21:18:00,
2013-08-28 17:33:00,76.4,69.0,29.84,SW,232,0.0,3.0,78,0.00,,,0.00,88,weatherlink.com 1.10,2013-08-28 21:33:00,
2013-08-28 17:48:00,76.0,70.0,29.85,SW,232,0.0,1.0,81,0.00,,,0.00,67,weatherlink.com 1.10,2013-08-28 21:48:00,
2013-08-28 18:03:00,75.4,70.0,29.86,WSW,257,0.0,1.0,82,0.00,,,0.00,56,weatherlink.com 1.10,2013-08-28 22:03:00,
2013-08-28 18:18:00,74.7,69.0,29.86,WNW,293,0.0,2.0,83,0.00,,,0.00,46,weatherlink.com 1.10,2013-08-28 22:18:00,
2013-08-28 18:33:00,74.3,69.0,29.86,WNW,293,0.0,1.0,83,0.00,,,0.00,53,weatherlink.com 1.10,2013-08-28 22:33:00,
2013-08-28 18:48:00,74.5,69.0,29.87,WNW,294,0.0,1.0,82,0.00,,,0.00,67,weatherlink.com 1.10,2013-08-28 22:48:00,
2013-08-28 19:03:00,74.1,69.0,29.87,WNW,294,0.0,0.0,84,0.00,,,0.00,37,weatherlink.com 1.10,2013-08-28 23:03:00,
2013-08-28 19:18:00,73.6,69.0,29.87,WNW,294,0.0,0.0,84,0.00,,,0.00,30,weatherlink.com 1.10,2013-08-28 23:18:00,
2013-08-28 19:33:00,73.0,68.0,29.88,WNW,294,0.0,0.0,85,0.00,,,0.00,7,weatherlink.com 1.10,2013-08-28 23:33:00,
2013-08-28 19:48:00,72.8,68.0,29.88,WNW,294,0.0,0.0,85,0.00,,,0.00,0,weatherlink.com 1.10,2013-08-28 23:48:00,
2013-08-28 20:18:00,72.1,68.0,29.90,WNW,294,0.0,0.0,87,0.00,,,0.00,0,weatherlink.com 1.10,2013-08-29 00:18:00,
2013-08-28 20:33:00,71.2,68.0,29.90,WNW,294,0.0,0.0,88,0.00,,,0.00,0,weatherlink.com 1.10,2013-08-29 00:33:00,
2013-08-28 20:48:00,71.2,68.0,29.91,WNW,294,0.0,0.0,89,0.00,,,0.00,0,weatherlink.com 1.10,2013-08-29 00:48:00,
2013-08-28 21:04:00,70.3,67.0,29.91,WNW,294,0.0,1.0,90,0.00,,,0.00,0,weatherlink.com 1.10,2013-08-29 01:04:00,
2013-08-28 21:18:00,70.0,68.0,29.91,WNW,294,0.0,0.0,92,0.00,,,0.00,0,weatherlink.com 1.10,2013-08-29 01:18:00,
2013-08-28 21:34:00,69.5,68.0,29.91,WNW,294,0.0,0.0,93,0.00,,,0.00,0,weatherlink.com 1.10,2013-08-29 01:34:00,
2013-08-28 21:49:00,69.4,67.0,29.91,WNW,294,0.0,0.0,93,0.00,,,0.00,0,weatherlink.com 1.10,2013-08-29 01:49:00,
2013-08-28 22:04:00,69.3,67.0,29.91,WNW,294,0.0,0.0,93,0.00,,,0.00,0,weatherlink.com 1.10,2013-08-29 02:04:00,
2013-08-28 22:19:00,69.2,67.0,29.91,WNW,294,0.0,0.0,93,0.00,,,0.00,0,weatherlink.com 1.10,2013-08-29 02:19:00,
2013-08-28 22:34:00,68.5,67.0,29.92,WNW,294,0.0,0.0,94,0.00,,,0.00,0,weatherlink.com 1.10,2013-08-29 02:34:00,
2013-08-28 22:49:00,68.4,67.0,29.91,WNW,294,0.0,0.0,94,0.00,,,0.00,0,weatherlink.com 1.10,2013-08-29 02:49:00,
2013-08-28 23:04:00,68.3,67.0,29.92,WNW,294,0.0,0.0,94,0.00,,,0.00,0,weatherlink.com 1.10,2013-08-29 03:04:00,
2013-08-28 23:19:00,68.0,67.0,29.92,WNW,294,0.0,0.0,95,0.00,,,0.00,0,weatherlink.com 1.10,2013-08-29 03:19:00,
2013-08-28 23:34:00,68.0,67.0,29.92,WNW,294,0.0,0.0,95,0.00,,,0.00,0,weatherlink.com 1.10,2013-08-29 03:34:00,
2013-08-28 23:49:00,67.9,67.0,29.92,WNW,294,0.0,0.0,95,0.00,,,0.00,0,weatherlink.com 1.10,2013-08-29 03:49:00,